Location: Unspecified
(17.6330°N, 0.0000°E)
Time: 23:40:07
(UTC+00:00)

Courier 1B Rocket - Pass Details

Date: 27 June 2019
Orbit: 920 x 1202 km, 28.2° (Epoch: 12 October)

Event Time Altitude Azimuth Distance (km) Brightness Sun altitude
Exits shadow 00:46:21 10° 67° (ENE) 2,934 7.8 -47.7°
Drops below altitude 10° 00:46:26 10° 67° (ENE) 2,960 7.8 -47.7°
Sets 00:49:06 0° 67° (ENE) 3,877 8.5 -47.5°
